Flag for U.S.A. Weather past 2 weeks in Oberlin, Ohio, U.S.A.

Now
74 °F

Sunny.


Feels Like: 77 °F
Forecast: 56 / 75 °F
Wind: 9 mph from Northeast

Location: Lorain County Regional Airport

Current Time: Jul 4, 2015 at 5:20:09 PM

Latest Report: Jul 4, 2015 at 4:53 PM


Visibility: 10 mi

Pressure: 30.02 "Hg

Humidity: 45%

Dew point: 51 °F

Location of OberlinLocation

Historic Weather in Oberlin — Graph

°F

Oberlin temperature yesterday

Maximum temperature yesterday: 75 °F (at 1:53 PM)
Minimum temperature yesterday: 54 °F (at 4:53 AM)
Average temperature yesterday: 64 °F

Past Weeks' High & Low Weather Summary

 TemperatureHumidityPressure
High83 °F (Jun 22, 3:53 PM)100% (Jul 3, 4:53 AM)30.16 "Hg (Jul 3, 4:53 AM)
Low54 °F (Jul 3, 4:53 AM)48% (Jun 24, 4:53 PM)29.58 "Hg (Jun 27, 4:53 PM)
Average67 °F79%29.92 "Hg
* Reported Jun 19 3:53 PM — Jul 4 3:53 PM, Oberlin, Weather by CustomWeather, © 2015

Note: Actual official high and low records may vary slightly from our data, if they occured in-between our weather recording intervals... More about our weather records

Advertising

Oberlin weather history for previous 24 hours

 ConditionsComfort  
Time TempWeatherWind HumidityBarometerVisibility
3:53 PM
Sat, Jul 4
74 °FSunny.6 mph48%30.01 "Hg10 mi
2:53 PM74 °FSunny.7 mph52%30.01 "Hg10 mi
1:53 PM73 °FSunny.6 mph55%30.00 "Hg10 mi
12:53 PM73 °FSunny.5 mph53%30.00 "Hg10 mi
11:53 AM71 °FSunny.6 mph57%30.00 "Hg10 mi
10:53 AM70 °FSunny.7 mph59%30.00 "Hg10 mi
9:53 AM68 °FSunny.7 mph65%29.98 "Hg10 mi
8:53 AM66 °FSunny.6 mph75%29.97 "Hg10 mi
7:53 AM61 °FSunny.No wind87%29.96 "Hg10 mi
6:53 AM55 °FFog.5 mph96%29.94 "Hg4 mi
5:53 AM56 °FClear.No wind93%29.92 "Hg7 mi
4:53 AM57 °FClear.3 mph96%29.91 "Hg8 mi
3:53 AM56 °FClear.No wind93%29.90 "Hg9 mi
2:53 AM57 °FClear.3 mph90%29.91 "Hg10 mi
1:53 AM57 °FClear.3 mph93%29.91 "Hg8 mi
12:53 AM58 °FClear.No wind90%29.91 "Hg10 mi
11:53 PM
Fri, Jul 3
58 °FClear.6 mph93%29.91 "Hg9 mi
10:53 PM62 °FClear.No wind80%29.90 "Hg10 mi
9:53 PM64 °FSunny.3 mph75%29.90 "Hg10 mi
8:53 PM66 °FSunny.7 mph68%29.90 "Hg10 mi
7:53 PM67 °FSunny.8 mph68%29.91 "Hg10 mi
6:53 PM69 °FSunny.7 mph61%29.90 "Hg10 mi
5:53 PM72 °FSunny.10 mph53%29.91 "Hg10 mi
Weather by CustomWeather, © 2015

See weather overviewHow to use our weather pages